Year,Month,Day,Hour,Minute,Value (Times are PST for temperature in C)
2011,07,02,00,00,13.70
2011,07,02,00,01,13.70
2011,07,02,00,02,13.70
2011,07,02,00,03,13.70
2011,07,02,00,04,13.60
2011,07,02,00,05,13.60
2011,07,02,00,06,13.60
2011,07,02,00,07,13.60
2011,07,02,00,08,13.60
2011,07,02,00,09,13.60
2011,07,02,00,10,13.60
2011,07,02,00,11,13.50
2011,07,02,00,12,13.50
2011,07,02,00,13,13.50
2011,07,02,00,14,13.50
2011,07,02,00,15,13.40
2011,07,02,00,16,13.40
2011,07,02,00,17,13.40
2011,07,02,00,18,13.40
2011,07,02,00,19,13.40
2011,07,02,00,20,13.40
2011,07,02,00,21,13.30
2011,07,02,00,22,13.30
2011,07,02,00,23,13.30
2011,07,02,00,24,13.30
2011,07,02,00,25,13.30
2011,07,02,00,26,13.30
2011,07,02,00,27,13.30
2011,07,02,00,28,13.30
2011,07,02,00,29,13.30
2011,07,02,00,30,13.30
2011,07,02,00,31,13.30
2011,07,02,00,32,13.30
2011,07,02,00,33,13.30
2011,07,02,00,34,13.30
2011,07,02,00,35,13.30
2011,07,02,00,36,13.30
2011,07,02,00,37,13.30
2011,07,02,00,38,13.30
2011,07,02,00,39,13.30
2011,07,02,00,40,13.30
2011,07,02,00,41,13.30
2011,07,02,00,42,13.30
2011,07,02,00,43,13.30
2011,07,02,00,44,13.30
2011,07,02,00,45,13.30
2011,07,02,00,46,13.30
2011,07,02,00,47,13.30
2011,07,02,00,48,13.30
2011,07,02,00,49,13.30
2011,07,02,00,50,13.30
2011,07,02,00,51,13.20
2011,07,02,00,52,13.20
2011,07,02,00,53,13.20
2011,07,02,00,54,13.20
2011,07,02,00,55,13.20
2011,07,02,00,56,13.20
2011,07,02,00,57,13.20
2011,07,02,00,58,13.20
2011,07,02,00,59,13.20
2011,07,02,01,00,13.20
2011,07,02,01,01,13.10
2011,07,02,01,02,13.10
2011,07,02,01,03,13.10
2011,07,02,01,04,13.10
2011,07,02,01,05,13.00
2011,07,02,01,06,13.00
2011,07,02,01,07,13.00
2011,07,02,01,08,12.90
2011,07,02,01,09,12.90
2011,07,02,01,10,12.90
2011,07,02,01,11,12.80
2011,07,02,01,12,12.80
2011,07,02,01,13,12.80
2011,07,02,01,14,12.80
2011,07,02,01,15,12.70
2011,07,02,01,16,12.70
2011,07,02,01,17,12.70
2011,07,02,01,18,12.70
2011,07,02,01,19,12.60
2011,07,02,01,20,12.60
2011,07,02,01,21,12.60
2011,07,02,01,22,12.60
2011,07,02,01,23,12.60
2011,07,02,01,24,12.60
2011,07,02,01,25,12.60
2011,07,02,01,26,12.60
2011,07,02,01,27,12.60
2011,07,02,01,28,12.60
2011,07,02,01,29,12.60
2011,07,02,01,30,12.50
2011,07,02,01,31,12.50
2011,07,02,01,32,12.50
2011,07,02,01,33,12.50
2011,07,02,01,34,12.50
2011,07,02,01,35,12.50
2011,07,02,01,36,12.40
2011,07,02,01,37,12.40
2011,07,02,01,38,12.50
2011,07,02,01,39,12.40
2011,07,02,01,40,12.40
2011,07,02,01,41,12.40
2011,07,02,01,42,12.40
2011,07,02,01,43,12.40
2011,07,02,01,44,12.40
2011,07,02,01,45,12.40
2011,07,02,01,46,12.40
2011,07,02,01,47,12.40
2011,07,02,01,48,12.40
2011,07,02,01,49,12.40
2011,07,02,01,50,12.40
2011,07,02,01,51,12.30
2011,07,02,01,52,12.40
2011,07,02,01,53,12.40
2011,07,02,01,54,12.30
2011,07,02,01,55,12.30
2011,07,02,01,56,12.40
2011,07,02,01,57,12.40
2011,07,02,01,58,12.40
2011,07,02,01,59,12.30
2011,07,02,02,00,12.30
2011,07,02,02,01,12.30
2011,07,02,02,02,12.30
2011,07,02,02,03,12.30
2011,07,02,02,04,12.30
2011,07,02,02,05,12.20
2011,07,02,02,06,12.20
2011,07,02,02,07,12.20
2011,07,02,02,08,12.10
2011,07,02,02,09,12.10
2011,07,02,02,10,12.00
2011,07,02,02,11,12.00
2011,07,02,02,12,11.90
2011,07,02,02,13,11.90
2011,07,02,02,14,11.80
2011,07,02,02,15,11.80
2011,07,02,02,16,11.80
2011,07,02,02,17,11.70
2011,07,02,02,18,11.70
2011,07,02,02,19,11.70
2011,07,02,02,20,11.60
2011,07,02,02,21,11.60
2011,07,02,02,22,11.50
2011,07,02,02,23,11.50
2011,07,02,02,24,11.50
2011,07,02,02,25,11.50
2011,07,02,02,26,11.50
2011,07,02,02,27,11.50
2011,07,02,02,28,11.50
2011,07,02,02,29,11.60
2011,07,02,02,30,11.60
2011,07,02,02,31,11.60
2011,07,02,02,32,11.60
2011,07,02,02,33,11.60
2011,07,02,02,34,11.60
2011,07,02,02,35,11.70
2011,07,02,02,36,11.70
2011,07,02,02,37,11.70
2011,07,02,02,38,11.70
2011,07,02,02,39,11.70
2011,07,02,02,40,11.70
2011,07,02,02,41,11.60
2011,07,02,02,42,11.60
2011,07,02,02,43,11.60
2011,07,02,02,44,11.60
2011,07,02,02,45,11.60
2011,07,02,02,46,11.60
2011,07,02,02,47,11.60
2011,07,02,02,48,11.50
2011,07,02,02,49,11.50
2011,07,02,02,50,11.50
2011,07,02,02,51,11.50
2011,07,02,02,52,11.40
2011,07,02,02,53,11.40
2011,07,02,02,54,11.40
2011,07,02,02,55,11.40
2011,07,02,02,56,11.30
2011,07,02,02,57,11.30
2011,07,02,02,58,11.30
2011,07,02,02,59,11.30
2011,07,02,03,00,11.30
2011,07,02,03,01,11.30
2011,07,02,03,02,11.20
2011,07,02,03,03,11.20
2011,07,02,03,04,11.20
2011,07,02,03,05,11.20
2011,07,02,03,06,11.10
2011,07,02,03,07,11.10
2011,07,02,03,08,11.10
2011,07,02,03,09,11.10
2011,07,02,03,10,11.10
2011,07,02,03,11,11.00
2011,07,02,03,12,11.00
2011,07,02,03,13,11.00
2011,07,02,03,14,11.00
2011,07,02,03,15,10.90
2011,07,02,03,16,10.90
2011,07,02,03,17,10.90
2011,07,02,03,18,10.90
2011,07,02,03,19,10.90
2011,07,02,03,20,10.90
2011,07,02,03,21,10.90
2011,07,02,03,22,10.90
2011,07,02,03,23,10.90
2011,07,02,03,24,10.80
2011,07,02,03,25,10.80
2011,07,02,03,26,10.80
2011,07,02,03,27,10.80
2011,07,02,03,28,10.80
2011,07,02,03,29,10.70
2011,07,02,03,30,10.70
2011,07,02,03,31,10.70
2011,07,02,03,32,10.70
2011,07,02,03,33,10.70
2011,07,02,03,34,10.60
2011,07,02,03,35,10.60
2011,07,02,03,36,10.60
2011,07,02,03,37,10.50
2011,07,02,03,38,10.50
2011,07,02,03,39,10.50
2011,07,02,03,40,10.40
2011,07,02,03,41,10.40
2011,07,02,03,42,10.40
2011,07,02,03,43,10.40
2011,07,02,03,44,10.30
2011,07,02,03,45,10.30
2011,07,02,03,46,10.30
2011,07,02,03,47,10.30
2011,07,02,03,48,10.30
2011,07,02,03,49,10.20
2011,07,02,03,50,10.20
2011,07,02,03,51,10.20
2011,07,02,03,52,10.20
2011,07,02,03,53,10.20
2011,07,02,03,54,10.20
2011,07,02,03,55,10.20
2011,07,02,03,56,10.10
2011,07,02,03,57,10.10
2011,07,02,03,58,10.10
2011,07,02,03,59,10.10
2011,07,02,04,00,10.10
2011,07,02,04,01,10.10
2011,07,02,04,02,10.10
2011,07,02,04,03,10.10
2011,07,02,04,04,10.20
2011,07,02,04,05,10.20
2011,07,02,04,06,10.20
2011,07,02,04,07,10.20
2011,07,02,04,08,10.30
2011,07,02,04,09,10.30
2011,07,02,04,10,10.30
2011,07,02,04,11,10.30
2011,07,02,04,12,10.30
2011,07,02,04,13,10.20
2011,07,02,04,14,10.20
2011,07,02,04,15,10.20
2011,07,02,04,16,10.20
2011,07,02,04,17,10.20
2011,07,02,04,18,10.20
2011,07,02,04,19,10.20
2011,07,02,04,20,10.20
2011,07,02,04,21,10.20
2011,07,02,04,22,10.10
2011,07,02,04,23,10.10
2011,07,02,04,24,10.10
2011,07,02,04,25,10.10
2011,07,02,04,26,10.10
2011,07,02,04,27,10.10
2011,07,02,04,28,10.00
2011,07,02,04,29,10.00
2011,07,02,04,30,10.00
2011,07,02,04,31,9.90
2011,07,02,04,32,9.90
2011,07,02,04,33,9.90
2011,07,02,04,34,9.90
2011,07,02,04,35,9.80
2011,07,02,04,36,9.80
2011,07,02,04,37,9.80
2011,07,02,04,38,9.80
2011,07,02,04,39,9.80
2011,07,02,04,40,9.80
2011,07,02,04,41,9.80
2011,07,02,04,42,9.70
2011,07,02,04,43,9.70
2011,07,02,04,44,9.70
2011,07,02,04,45,9.70
2011,07,02,04,46,9.70
2011,07,02,04,47,9.70
2011,07,02,04,48,9.70
2011,07,02,04,49,9.70
2011,07,02,04,50,9.70
2011,07,02,04,51,9.70
2011,07,02,04,52,9.70
2011,07,02,04,53,9.70
2011,07,02,04,54,9.70
2011,07,02,04,55,9.70
2011,07,02,04,56,9.70
2011,07,02,04,57,9.70
2011,07,02,04,58,9.80
2011,07,02,04,59,9.80
2011,07,02,05,00,9.80
2011,07,02,05,01,9.80
2011,07,02,05,02,9.80
2011,07,02,05,03,9.80
2011,07,02,05,04,9.80
2011,07,02,05,05,9.80
2011,07,02,05,06,9.80
2011,07,02,05,07,9.80
2011,07,02,05,08,9.80
2011,07,02,05,09,9.80
2011,07,02,05,10,9.80
2011,07,02,05,11,9.80
2011,07,02,05,12,9.70
2011,07,02,05,13,9.70
2011,07,02,05,14,9.70
2011,07,02,05,15,9.70
2011,07,02,05,16,9.70
2011,07,02,05,17,9.70
2011,07,02,05,18,9.70
2011,07,02,05,19,9.70
2011,07,02,05,20,9.70
2011,07,02,05,21,9.70
2011,07,02,05,22,9.70
2011,07,02,05,23,9.70
2011,07,02,05,24,9.70
2011,07,02,05,25,9.70
2011,07,02,05,26,9.70
2011,07,02,05,27,9.70
2011,07,02,05,28,9.70
2011,07,02,05,29,9.70
2011,07,02,05,30,9.70
2011,07,02,05,31,9.70
2011,07,02,05,32,9.70
2011,07,02,05,33,9.70
2011,07,02,05,34,9.70
2011,07,02,05,35,9.70
2011,07,02,05,36,9.70
2011,07,02,05,37,9.70
2011,07,02,05,38,9.70
2011,07,02,05,39,9.70
2011,07,02,05,40,9.70
2011,07,02,05,41,9.70
2011,07,02,05,42,9.70
2011,07,02,05,43,9.70
2011,07,02,05,44,9.70
2011,07,02,05,45,9.70
2011,07,02,05,46,9.60
2011,07,02,05,47,9.60
2011,07,02,05,48,9.60
2011,07,02,05,49,9.60
2011,07,02,05,50,9.60
2011,07,02,05,51,9.60
2011,07,02,05,52,9.60
2011,07,02,05,53,9.60
2011,07,02,05,54,9.60
2011,07,02,05,55,9.60
2011,07,02,05,56,9.60
2011,07,02,05,57,9.60
2011,07,02,05,58,9.60
2011,07,02,05,59,9.60
2011,07,02,06,00,9.60
2011,07,02,06,01,9.70
2011,07,02,06,02,9.70
2011,07,02,06,03,9.70
2011,07,02,06,04,9.70
2011,07,02,06,05,9.70
2011,07,02,06,06,9.70
2011,07,02,06,07,9.80
2011,07,02,06,08,9.80
2011,07,02,06,09,9.80
2011,07,02,06,10,9.90
2011,07,02,06,11,9.90
2011,07,02,06,12,9.90
2011,07,02,06,13,9.90
2011,07,02,06,14,10.00
2011,07,02,06,15,10.00
2011,07,02,06,16,10.10
2011,07,02,06,17,10.10
2011,07,02,06,18,10.10
2011,07,02,06,19,10.20
2011,07,02,06,20,10.20
2011,07,02,06,21,10.20
2011,07,02,06,22,10.30
2011,07,02,06,23,10.30
2011,07,02,06,24,10.30
2011,07,02,06,25,10.40
2011,07,02,06,26,10.40
2011,07,02,06,27,10.40
2011,07,02,06,28,10.40
2011,07,02,06,29,10.50
2011,07,02,06,30,10.50
2011,07,02,06,31,10.50
2011,07,02,06,32,10.50
2011,07,02,06,33,10.60
2011,07,02,06,34,10.60
2011,07,02,06,35,10.60
2011,07,02,06,36,10.60
2011,07,02,06,37,10.60
2011,07,02,06,38,10.70
2011,07,02,06,39,10.70
2011,07,02,06,40,10.70
2011,07,02,06,41,10.70
2011,07,02,06,42,10.80
2011,07,02,06,43,10.80
2011,07,02,06,44,10.80
2011,07,02,06,45,10.80
2011,07,02,06,46,10.90
2011,07,02,06,47,10.90
2011,07,02,06,48,10.90
2011,07,02,06,49,11.00
2011,07,02,06,50,11.00
2011,07,02,06,51,11.00
2011,07,02,06,52,11.10
2011,07,02,06,53,11.10
2011,07,02,06,54,11.10
2011,07,02,06,55,11.10
2011,07,02,06,56,11.10
2011,07,02,06,57,11.20
2011,07,02,06,58,11.20
2011,07,02,06,59,11.30
2011,07,02,07,00,11.30
2011,07,02,07,01,11.30
2011,07,02,07,02,11.40
2011,07,02,07,03,11.40
2011,07,02,07,04,11.50
2011,07,02,07,05,11.60
2011,07,02,07,06,11.60
2011,07,02,07,07,11.70
2011,07,02,07,08,11.70
2011,07,02,07,09,11.80
2011,07,02,07,10,11.80
2011,07,02,07,11,11.90
2011,07,02,07,12,11.90
2011,07,02,07,13,12.00
2011,07,02,07,14,12.00
2011,07,02,07,15,12.10
2011,07,02,07,16,12.10
2011,07,02,07,17,12.10
2011,07,02,07,18,12.20
2011,07,02,07,19,12.20
2011,07,02,07,20,12.20
2011,07,02,07,21,12.30
2011,07,02,07,22,12.30
2011,07,02,07,23,12.30
2011,07,02,07,24,12.40
2011,07,02,07,25,12.40
2011,07,02,07,26,12.40
2011,07,02,07,27,12.50
2011,07,02,07,28,12.50
2011,07,02,07,29,12.60
2011,07,02,07,30,12.60
2011,07,02,07,31,12.60
2011,07,02,07,32,12.70
2011,07,02,07,33,12.70
2011,07,02,07,34,12.80
2011,07,02,07,35,12.80
2011,07,02,07,36,12.80
2011,07,02,07,37,12.90
2011,07,02,07,38,12.90
2011,07,02,07,39,12.90
2011,07,02,07,40,13.00
2011,07,02,07,41,13.10
2011,07,02,07,42,13.10
2011,07,02,07,43,13.10
2011,07,02,07,44,13.20
2011,07,02,07,45,13.30
2011,07,02,07,46,13.30
2011,07,02,07,47,13.40
2011,07,02,07,48,13.50
2011,07,02,07,49,13.50
2011,07,02,07,50,13.60
2011,07,02,07,51,13.70
2011,07,02,07,52,13.70
2011,07,02,07,53,13.70
2011,07,02,07,54,13.80
2011,07,02,07,55,13.80
2011,07,02,07,56,13.90
2011,07,02,07,57,13.90
2011,07,02,07,58,14.00
2011,07,02,07,59,14.00
2011,07,02,08,00,14.10
2011,07,02,08,01,14.10
2011,07,02,08,02,14.20
2011,07,02,08,03,14.20
2011,07,02,08,04,14.20
2011,07,02,08,05,14.30
2011,07,02,08,06,14.40
2011,07,02,08,07,14.40
2011,07,02,08,08,14.50
2011,07,02,08,09,14.50
2011,07,02,08,10,14.60
2011,07,02,08,11,14.70
2011,07,02,08,12,14.70
2011,07,02,08,13,14.80
2011,07,02,08,14,14.80
2011,07,02,08,15,14.80
2011,07,02,08,16,14.90
2011,07,02,08,17,14.90
2011,07,02,08,18,15.00
2011,07,02,08,19,15.00
2011,07,02,08,20,15.00
2011,07,02,08,21,15.10
2011,07,02,08,22,15.10
2011,07,02,08,23,15.10
2011,07,02,08,24,15.20
2011,07,02,08,25,15.20
2011,07,02,08,26,15.20
2011,07,02,08,27,15.20
2011,07,02,08,28,15.20
2011,07,02,08,29,15.20
2011,07,02,08,30,15.30
2011,07,02,08,31,15.30
2011,07,02,08,32,15.30
2011,07,02,08,33,15.40
2011,07,02,08,34,15.50
2011,07,02,08,35,15.60
2011,07,02,08,36,15.70
2011,07,02,08,37,15.70
2011,07,02,08,38,15.70
2011,07,02,08,39,15.80
2011,07,02,08,40,15.80
2011,07,02,08,41,15.80
2011,07,02,08,42,15.80
2011,07,02,08,43,15.80
2011,07,02,08,44,15.80
2011,07,02,08,45,15.80
2011,07,02,08,46,15.80
2011,07,02,08,47,15.80
2011,07,02,08,48,15.90
2011,07,02,08,49,15.90
2011,07,02,08,50,15.90
2011,07,02,08,51,15.90
2011,07,02,08,52,15.90
2011,07,02,08,53,15.90
2011,07,02,08,54,16.00
2011,07,02,08,55,16.00
2011,07,02,08,56,16.10
2011,07,02,08,57,16.10
2011,07,02,08,58,16.20
2011,07,02,08,59,16.20
2011,07,02,09,00,16.20
2011,07,02,09,01,16.30
2011,07,02,09,02,16.30
2011,07,02,09,03,16.40
2011,07,02,09,04,16.40
2011,07,02,09,05,16.50
2011,07,02,09,06,16.60
2011,07,02,09,07,16.70
2011,07,02,09,08,16.80
2011,07,02,09,09,16.90
2011,07,02,09,10,17.00
2011,07,02,09,11,17.10
2011,07,02,09,12,17.20
2011,07,02,09,13,17.20
2011,07,02,09,14,17.20
2011,07,02,09,15,17.20
2011,07,02,09,16,17.30
2011,07,02,09,17,17.30
2011,07,02,09,18,17.30
2011,07,02,09,19,17.40
2011,07,02,09,20,17.50
2011,07,02,09,21,17.50
2011,07,02,09,22,17.60
2011,07,02,09,23,17.60
2011,07,02,09,24,17.70
2011,07,02,09,25,17.70
2011,07,02,09,26,17.70
2011,07,02,09,27,17.70
2011,07,02,09,28,17.80
2011,07,02,09,29,17.80
2011,07,02,09,30,17.70
2011,07,02,09,31,17.70
2011,07,02,09,32,17.70
2011,07,02,09,33,17.70
2011,07,02,09,34,17.70
2011,07,02,09,35,17.70
2011,07,02,09,36,17.70
2011,07,02,09,37,17.70
2011,07,02,09,38,17.70
2011,07,02,09,39,17.70
2011,07,02,09,40,17.70
2011,07,02,09,41,17.70
2011,07,02,09,42,17.70
2011,07,02,09,43,17.60
2011,07,02,09,44,17.60
2011,07,02,09,45,17.60
2011,07,02,09,46,17.70
2011,07,02,09,47,17.70
2011,07,02,09,48,17.70
2011,07,02,09,49,17.80
2011,07,02,09,50,17.80
2011,07,02,09,51,17.80
2011,07,02,09,52,17.90
2011,07,02,09,53,17.90
2011,07,02,09,54,17.90
2011,07,02,09,55,17.90
2011,07,02,09,56,17.90
2011,07,02,09,57,17.90
2011,07,02,09,58,17.90
2011,07,02,09,59,18.00
2011,07,02,10,00,18.00
2011,07,02,10,01,18.10
2011,07,02,10,02,18.10
2011,07,02,10,03,18.10
2011,07,02,10,04,18.10
2011,07,02,10,05,18.20
2011,07,02,10,06,18.20
2011,07,02,10,07,18.30
2011,07,02,10,08,18.30
2011,07,02,10,09,18.40
2011,07,02,10,10,18.40
2011,07,02,10,11,18.40
2011,07,02,10,12,18.40
2011,07,02,10,13,18.50
2011,07,02,10,14,18.50
2011,07,02,10,15,18.50
2011,07,02,10,16,18.60
2011,07,02,10,17,18.60
2011,07,02,10,18,18.60
2011,07,02,10,19,18.60
2011,07,02,10,20,18.60
2011,07,02,10,21,18.60
2011,07,02,10,22,18.70
2011,07,02,10,23,18.60
2011,07,02,10,24,18.60
2011,07,02,10,25,18.60
2011,07,02,10,26,18.70
2011,07,02,10,27,18.70
2011,07,02,10,28,18.70
2011,07,02,10,29,18.70
2011,07,02,10,30,18.70
2011,07,02,10,31,18.70
2011,07,02,10,32,18.70
2011,07,02,10,33,18.70
2011,07,02,10,34,18.70
2011,07,02,10,35,18.70
2011,07,02,10,36,18.70
2011,07,02,10,37,18.80
2011,07,02,10,38,18.80
2011,07,02,10,39,18.80
2011,07,02,10,40,18.90
2011,07,02,10,41,19.00
2011,07,02,10,42,19.10
2011,07,02,10,43,19.00
2011,07,02,10,44,19.00
2011,07,02,10,45,18.90
2011,07,02,10,46,18.90
2011,07,02,10,47,18.80
2011,07,02,10,48,18.80
2011,07,02,10,49,18.80
2011,07,02,10,50,18.80
2011,07,02,10,51,18.80
2011,07,02,10,52,18.80
2011,07,02,10,53,18.80
2011,07,02,10,54,18.90
2011,07,02,10,55,18.90
2011,07,02,10,56,18.90
2011,07,02,10,57,18.90
2011,07,02,10,58,18.90
2011,07,02,10,59,19.00
2011,07,02,11,00,19.00
2011,07,02,11,01,19.00
2011,07,02,11,02,19.00
2011,07,02,11,03,19.00
2011,07,02,11,04,19.00
2011,07,02,11,05,19.00
2011,07,02,11,06,19.00
2011,07,02,11,07,19.00
2011,07,02,11,08,19.10
2011,07,02,11,09,19.20
2011,07,02,11,10,19.20
2011,07,02,11,11,19.20
2011,07,02,11,12,19.20
2011,07,02,11,13,19.20
2011,07,02,11,14,19.30
2011,07,02,11,15,19.30
2011,07,02,11,16,19.30
2011,07,02,11,17,19.30
2011,07,02,11,18,19.20
2011,07,02,11,19,19.20
2011,07,02,11,20,19.30
2011,07,02,11,21,19.30
2011,07,02,11,22,19.30
2011,07,02,11,23,19.30
2011,07,02,11,24,19.30
2011,07,02,11,25,19.20
2011,07,02,11,26,19.10
2011,07,02,11,27,19.00
2011,07,02,11,28,18.90
2011,07,02,11,29,18.90
2011,07,02,11,30,18.80
2011,07,02,11,31,18.80
2011,07,02,11,32,18.70
2011,07,02,11,33,18.70
2011,07,02,11,34,18.70
2011,07,02,11,35,18.70
2011,07,02,11,36,18.70
2011,07,02,11,37,18.70
2011,07,02,11,38,18.80
2011,07,02,11,39,18.80
2011,07,02,11,40,18.70
2011,07,02,11,41,18.70
2011,07,02,11,42,18.70
2011,07,02,11,43,18.60
2011,07,02,11,44,18.60
2011,07,02,11,45,18.60
2011,07,02,11,46,18.60
2011,07,02,11,47,18.60
2011,07,02,11,48,18.60
2011,07,02,11,49,18.50
2011,07,02,11,50,18.50
2011,07,02,11,51,18.40
2011,07,02,11,52,18.40
2011,07,02,11,53,18.40
2011,07,02,11,54,18.40
2011,07,02,11,55,18.40
2011,07,02,11,56,18.40
2011,07,02,11,57,18.30
2011,07,02,11,58,18.30
2011,07,02,11,59,18.30
2011,07,02,12,00,18.30
2011,07,02,12,01,18.30
2011,07,02,12,02,18.30
2011,07,02,12,03,18.40
2011,07,02,12,04,18.40
2011,07,02,12,05,18.50
2011,07,02,12,06,18.60
2011,07,02,12,07,18.60
2011,07,02,12,08,18.60
2011,07,02,12,09,18.70
2011,07,02,12,10,18.70
2011,07,02,12,11,18.80
2011,07,02,12,12,18.80
2011,07,02,12,13,18.90
2011,07,02,12,14,18.90
2011,07,02,12,15,19.00
2011,07,02,12,16,19.00
2011,07,02,12,17,19.10
2011,07,02,12,18,19.10
2011,07,02,12,19,19.20
2011,07,02,12,20,19.20
2011,07,02,12,21,19.20
2011,07,02,12,22,19.10
2011,07,02,12,23,19.10
2011,07,02,12,24,19.00
2011,07,02,12,25,18.90
2011,07,02,12,26,18.90
2011,07,02,12,27,18.90
2011,07,02,12,28,18.90
2011,07,02,12,29,18.70
2011,07,02,12,30,18.70
2011,07,02,12,31,18.60
2011,07,02,12,32,18.60
2011,07,02,12,33,18.70
2011,07,02,12,34,18.80
2011,07,02,12,35,18.80
2011,07,02,12,36,18.90
2011,07,02,12,37,19.00
2011,07,02,12,38,19.10
2011,07,02,12,39,19.10
2011,07,02,12,40,19.20
2011,07,02,12,41,19.20
2011,07,02,12,42,19.20
2011,07,02,12,43,19.20
2011,07,02,12,44,19.30
2011,07,02,12,45,19.30
2011,07,02,12,46,19.30
2011,07,02,12,47,19.30
2011,07,02,12,48,19.30
2011,07,02,12,49,19.30
2011,07,02,12,50,19.30
2011,07,02,12,51,19.30
2011,07,02,12,52,19.30
2011,07,02,12,53,19.30
2011,07,02,12,54,19.30
2011,07,02,12,55,19.30
2011,07,02,12,56,19.40
2011,07,02,12,57,19.40
2011,07,02,12,58,19.50
2011,07,02,12,59,19.50
2011,07,02,13,00,19.50
2011,07,02,13,01,19.40
2011,07,02,13,02,19.40
2011,07,02,13,03,19.30
2011,07,02,13,04,19.30
2011,07,02,13,05,19.20
2011,07,02,13,06,19.20
2011,07,02,13,07,19.20
2011,07,02,13,08,19.20
2011,07,02,13,09,19.10
2011,07,02,13,10,19.10
2011,07,02,13,11,19.20
2011,07,02,13,12,19.20
2011,07,02,13,13,19.20
2011,07,02,13,14,19.20
2011,07,02,13,15,19.20
2011,07,02,13,16,19.20
2011,07,02,13,17,19.20
2011,07,02,13,18,19.20
2011,07,02,13,19,19.20
2011,07,02,13,20,19.20
2011,07,02,13,21,19.30
2011,07,02,13,22,19.30
2011,07,02,13,23,19.20
2011,07,02,13,24,19.10
2011,07,02,13,25,19.00
2011,07,02,13,26,18.90
2011,07,02,13,27,18.90
2011,07,02,13,28,18.90
2011,07,02,13,29,18.90
2011,07,02,13,30,18.90
2011,07,02,13,31,18.90
2011,07,02,13,32,18.90
2011,07,02,13,33,18.80
2011,07,02,13,34,18.80
2011,07,02,13,35,18.80
2011,07,02,13,36,18.80
2011,07,02,13,37,18.80
2011,07,02,13,38,18.80
2011,07,02,13,39,18.80
2011,07,02,13,40,18.80
2011,07,02,13,41,18.70
2011,07,02,13,42,18.70
2011,07,02,13,43,18.80
2011,07,02,13,44,18.80
2011,07,02,13,45,18.80
2011,07,02,13,46,18.90
2011,07,02,13,47,19.00
2011,07,02,13,48,19.10
2011,07,02,13,49,19.10
2011,07,02,13,50,19.20
2011,07,02,13,51,19.20
2011,07,02,13,52,19.20
2011,07,02,13,53,19.30
2011,07,02,13,54,19.20
2011,07,02,13,55,19.20
2011,07,02,13,56,19.20
2011,07,02,13,57,19.20
2011,07,02,13,58,19.10
2011,07,02,13,59,19.10
2011,07,02,14,00,19.20
2011,07,02,14,01,19.30
2011,07,02,14,02,19.40
2011,07,02,14,03,19.50
2011,07,02,14,04,19.60
2011,07,02,14,05,19.70
2011,07,02,14,06,19.80
2011,07,02,14,07,19.90
2011,07,02,14,08,20.00
2011,07,02,14,09,20.00
2011,07,02,14,10,20.00
2011,07,02,14,11,20.00
2011,07,02,14,12,20.00
2011,07,02,14,13,20.00
2011,07,02,14,14,20.00
2011,07,02,14,15,19.90
2011,07,02,14,16,19.80
2011,07,02,14,17,19.70
2011,07,02,14,18,19.70
2011,07,02,14,19,19.70
2011,07,02,14,20,19.70
2011,07,02,14,21,19.70
2011,07,02,14,22,19.80
2011,07,02,14,23,19.80
2011,07,02,14,24,19.80
2011,07,02,14,25,19.70
2011,07,02,14,26,19.70
2011,07,02,14,27,19.70
2011,07,02,14,28,19.80
2011,07,02,14,29,19.80
2011,07,02,14,30,19.90
2011,07,02,14,31,20.00
2011,07,02,14,32,20.10
2011,07,02,14,33,20.20
2011,07,02,14,34,20.30
2011,07,02,14,35,20.30
2011,07,02,14,36,20.30
2011,07,02,14,37,20.40
2011,07,02,14,38,20.40
2011,07,02,14,39,20.40
2011,07,02,14,40,20.40
2011,07,02,14,41,20.40
2011,07,02,14,42,20.40
2011,07,02,14,43,20.40
2011,07,02,14,44,20.40
2011,07,02,14,45,20.40
2011,07,02,14,46,20.50
2011,07,02,14,47,20.60
2011,07,02,14,48,20.60
2011,07,02,14,49,20.60
2011,07,02,14,50,20.60
2011,07,02,14,51,20.60
2011,07,02,14,52,20.60
2011,07,02,14,53,20.60
2011,07,02,14,54,20.60
2011,07,02,14,55,20.60
2011,07,02,14,56,20.70
2011,07,02,14,57,20.80
2011,07,02,14,58,20.90
2011,07,02,14,59,21.00
2011,07,02,15,00,21.10
2011,07,02,15,01,21.20
2011,07,02,15,02,21.20
2011,07,02,15,03,21.30
2011,07,02,15,04,21.40
2011,07,02,15,05,21.50
2011,07,02,15,06,21.60
2011,07,02,15,07,21.60
2011,07,02,15,08,21.60
2011,07,02,15,09,21.60
2011,07,02,15,10,21.60
2011,07,02,15,11,21.60
2011,07,02,15,12,21.60
2011,07,02,15,13,21.60
2011,07,02,15,14,21.60
2011,07,02,15,15,21.60
2011,07,02,15,16,21.60
2011,07,02,15,17,21.70
2011,07,02,15,18,21.70
2011,07,02,15,19,21.60
2011,07,02,15,20,21.60
2011,07,02,15,21,21.60
2011,07,02,15,22,21.60
2011,07,02,15,23,21.60
2011,07,02,15,24,21.60
2011,07,02,15,25,21.50
2011,07,02,15,26,21.50
2011,07,02,15,27,21.50
2011,07,02,15,28,21.40
2011,07,02,15,29,21.40
2011,07,02,15,30,21.40
2011,07,02,15,31,21.40
2011,07,02,15,32,21.40
2011,07,02,15,33,21.40
2011,07,02,15,34,21.50
2011,07,02,15,35,21.50
2011,07,02,15,36,21.60
2011,07,02,15,37,21.60
2011,07,02,15,38,21.60
2011,07,02,15,39,21.60
2011,07,02,15,40,21.60
2011,07,02,15,41,21.60
2011,07,02,15,42,21.60
2011,07,02,15,43,21.70
2011,07,02,15,44,21.70
2011,07,02,15,45,21.80
2011,07,02,15,46,21.80
2011,07,02,15,47,21.90
2011,07,02,15,48,22.00
2011,07,02,15,49,22.10
2011,07,02,15,50,22.20
2011,07,02,15,51,22.30
2011,07,02,15,52,22.40
2011,07,02,15,53,22.40
2011,07,02,15,54,22.40
2011,07,02,15,55,22.50
2011,07,02,15,56,22.50
2011,07,02,15,57,22.50
2011,07,02,15,58,22.60
2011,07,02,15,59,22.70
2011,07,02,16,00,22.80
2011,07,02,16,01,22.90
2011,07,02,16,02,23.00
2011,07,02,16,03,23.00
2011,07,02,16,04,22.90
2011,07,02,16,05,22.80
2011,07,02,16,06,22.80
2011,07,02,16,07,22.70
2011,07,02,16,08,22.70
2011,07,02,16,09,22.70
2011,07,02,16,10,22.70
2011,07,02,16,11,22.70
2011,07,02,16,12,22.70
2011,07,02,16,13,22.70
2011,07,02,16,14,22.70
2011,07,02,16,15,22.80
2011,07,02,16,16,22.80
2011,07,02,16,17,22.80
2011,07,02,16,18,22.80
2011,07,02,16,19,22.90
2011,07,02,16,20,23.00
2011,07,02,16,21,23.10
2011,07,02,16,22,23.10
2011,07,02,16,23,23.10
2011,07,02,16,24,23.10
2011,07,02,16,25,23.10
2011,07,02,16,26,23.10
2011,07,02,16,27,23.20
2011,07,02,16,28,23.20
2011,07,02,16,29,23.30
2011,07,02,16,30,23.40
2011,07,02,16,31,23.40
2011,07,02,16,32,23.50
2011,07,02,16,33,23.50
2011,07,02,16,34,23.50
2011,07,02,16,35,23.50
2011,07,02,16,36,23.60
2011,07,02,16,37,23.60
2011,07,02,16,38,23.70
2011,07,02,16,39,23.70
2011,07,02,16,40,23.70
2011,07,02,16,41,23.80
2011,07,02,16,42,23.80
2011,07,02,16,43,23.80
2011,07,02,16,44,23.90
2011,07,02,16,45,23.90
2011,07,02,16,46,23.80
2011,07,02,16,47,23.80
2011,07,02,16,48,23.70
2011,07,02,16,49,23.60
2011,07,02,16,50,23.60
2011,07,02,16,51,23.60
2011,07,02,16,52,23.70
2011,07,02,16,53,23.70
2011,07,02,16,54,23.70
2011,07,02,16,55,23.70
2011,07,02,16,56,23.70
2011,07,02,16,57,23.60
2011,07,02,16,58,23.70
2011,07,02,16,59,23.80
2011,07,02,17,00,23.90
2011,07,02,17,01,24.00
2011,07,02,17,02,24.10
2011,07,02,17,03,24.00
2011,07,02,17,04,23.90
2011,07,02,17,05,23.90
2011,07,02,17,06,23.80
2011,07,02,17,07,23.80
2011,07,02,17,08,23.70
2011,07,02,17,09,23.60
2011,07,02,17,10,23.60
2011,07,02,17,11,23.60
2011,07,02,17,12,23.70
2011,07,02,17,13,23.70
2011,07,02,17,14,23.60
2011,07,02,17,15,23.40
2011,07,02,17,16,23.20
2011,07,02,17,17,23.20
2011,07,02,17,18,23.10
2011,07,02,17,19,23.10
2011,07,02,17,20,23.10
2011,07,02,17,21,23.10
2011,07,02,17,22,23.10
2011,07,02,17,23,23.10